Content
SEND FEEDBACK

Daily
Averages
Monthly
Summary
United States of America

BYRON, CALIFORNIA


Home > North America > United States > California
Elevation: 2 meters     Latitude: 37 48N     Longitude: 121 35W

WEATHER
 
SELECT A DAY
Number of Records: 176,505;   Date Range: 1/1/95 - 10/29/14
 
SHARE

PRINT THIS DATA

[ ← Previous Day ]
WEATHER ALMANAC - 13 FEBRUARY, 2013
[ Next Day → ]
[ °F ]   °C
Weather ElementAverageHighLow
Temperature8.9 °C17.8 °C (2:53 pm)0.6 °C (6:53 am)
Dewpoint2.5 °C6.7 °C (5:53 pm)-1.1 °C (6:53 am)
Humidity67.3 %89 % (6:53 am)38 % (2:53 pm)
Barometer1025.4 hPa1027.8 hPa (8:53 am)1023 hPa (4:53 pm)
Wind Speed2.4 km/h9.3 km/h (3:53 pm)
Weather ElementAverage
Visibility16.1 km
Wind DirectionNNE (38.3 °)

Weather ElementTotal
Precipitation---
Heating Degree Days9.2 (Base 18.3)
Averaged from 23 records on 13 February, 2013
WEATHER CONDITIONS BREAKOUT
WIND DIRECTION BREAKOUT
WEATHER BY HOUR - 13 FEBRUARY, 2013
[ °F ]   °C
Local TimeTemperatureDewpointHumidityBarometerVisibilityWind DirectionWind SpeedGust SpeedPrecipitationEventsConditions
1:53 AM2.2 °C0 °C86 %1027.4 hPa16.1 kmEast (90°)5.6 km/hClear
2:53 AM2.2 °C0 °C86 %1027.1 hPa16.1 kmCalmClear
3:53 AM1.7 °C-0.6 °C85 %1026.8 hPa16.1 kmCalmClear
4:53 AM2.2 °C-0.6 °C82 %1026.8 hPa16.1 kmCalmClear
5:53 AM2.2 °C0 °C86 %1027.1 hPa14.5 kmCalmClear
6:53 AM0.6 °C-1.1 °C89 %1027.1 hPa16.1 kmCalmClear
7:53 AM3.3 °C0 °C79 %1027.4 hPa16.1 kmCalmClear
8:53 AM5.6 °C1.7 °C76 %1027.8 hPa16.1 kmCalmClear
9:53 AM8.3 °C2.2 °C66 %1027.8 hPa16.1 kmCalmClear
10:53 AM11.1 °C3.9 °C61 %1027.4 hPa16.1 kmCalmClear
11:53 AM14.4 °C3.9 °C49 %1026.8 hPa16.1 kmCalmClear
12:53 PM15.6 °C3.9 °C46 %1025.4 hPa16.1 kmCalmClear
1:53 PM16.7 °C3.3 °C41 %1024.4 hPa16.1 kmCalmClear
2:53 PM17.8 °C3.3 °C38 %1023.7 hPa16.1 kmVariable7.4 km/hClear
3:53 PM17.8 °C3.3 °C38 %1023.4 hPa16.1 kmENE (70°)9.3 km/hClear
4:53 PM17.2 °C5 °C45 %1023 hPa16.1 kmCalmClear
5:53 PM13.9 °C6.7 °C62 %1023 hPa16.1 kmWSW (240°)7.4 km/hClear
6:53 PM13.3 °C5 °C57 %1023.4 hPa16.1 kmWNW (300°)9.3 km/hClear
7:53 PM11.1 °C4.4 °C63 %1023.4 hPa16.1 kmNE (40°)5.6 km/hClear
8:53 PM8.9 °C4.4 °C74 %1023.7 hPa16.1 kmCalmClear
9:53 PM8.3 °C3.9 °C74 %1023.7 hPa16.1 kmCalmClear
10:53 PM5.6 °C2.8 °C82 %1023.7 hPa16.1 kmENE (60°)5.6 km/hClear
11:53 PM5.6 °C2.8 °C82 %1023.7 hPa16.1 kmEast (80°)5.6 km/hClear
Hourly data recorded from KLVK, located 0 kilometers away from Byron, California







STORIES FROM OUR PARTNERS